Location: Ellerstadt
(49.4644°N, 8.2615°E)
Time: 11:53:28
(UTC+00:00)

Cosmos 2074 Rocket - Pass Details

Date: 03 March 2021
Orbit: 966 x 987 km, 82.9° (Epoch: 13 April)

Event Time Altitude Azimuth Distance (km) Brightness Sun altitude
Rises 17:34:12 0° 175° (S) 3,676 7.0 -4.2°
Reaches altitude 10° 17:36:44 10° 172° (S) 2,730 6.3 -4.6°
Maximum altitude 17:42:53 63° 94° (E) 1,092 4.1 -5.6°
Drops below altitude 10° 17:49:03 10° 15° (NNE) 2,735 6.2 -6.6°
Sets 17:51:35 0° 12° (NNE) 3,684 6.9 -7.0°
